Location: Invercargill
(46.4000°S, 168.3500°E)
Time: 21:15:03
(UTC+12:00)

Vanguard 3 - All Passes

Search period start: 17 July 2019 00:00
Search period end: 27 July 2019 00:00
Orbit: 507 x 3264 km, 33.4° (Epoch: 16 July)

Date Brightness Start Highest point End Pass type
(mag) Time Alt. Az. Time Alt. Az. Time Alt. Az.
17 Jul - 16:17:38 10° N 16:18:33 10° NNE 16:19:26 10° NNE daylight
17 Jul - 18:27:05 10° NNW 18:29:29 14° N 18:31:36 10° NNE visible
18 Jul - 17:13:02 10° NNW 17:16:06 15° N 17:18:40 10° NE daylight
18 Jul - 19:24:56 10° NW 19:26:47 13° N 19:28:32 10° NNE visible
19 Jul - 15:58:57 10° NNW 16:02:34 15° N 16:05:28 10° NE daylight
19 Jul - 18:10:27 10° NW 18:13:31 16° N 18:16:07 10° NE visible
20 Jul - 14:45:14 10° N 14:48:46 13° NNE 14:51:41 10° NE daylight
20 Jul - 16:55:52 10° NW 17:00:09 18° N 17:03:25 10° NE daylight
20 Jul - 19:08:45 10° NW 19:10:49 13° NNW 19:12:41 10° NNE visible
21 Jul - 13:33:20 10° NNE 13:34:42 10° NNE 13:35:59 10° NNE daylight
21 Jul - 15:41:10 10° NNW 15:46:33 19° N 15:50:29 10° NE daylight
21 Jul - 17:53:46 10° NW 17:57:34 18° N 18:00:34 10° NE visible
22 Jul - 14:26:37 10° NNW 14:32:39 18° NNE 14:37:08 10° NE daylight
22 Jul - 16:38:44 10° NW 16:44:10 22° N 16:48:03 10° NE daylight
22 Jul - 18:52:26 10° NW 18:54:47 13° NNW 18:56:52 10° N visible
23 Jul - 13:12:41 10° N 13:18:28 15° NNE 13:23:00 10° NE daylight
23 Jul - 15:23:33 10° NW 15:30:29 24° N 15:35:14 10° ENE daylight
23 Jul - 17:37:00 10° WNW 17:41:35 20° NNW 17:45:00 10° NE daylight
24 Jul - 12:00:50 10° NNE 12:03:58 11° NNE 12:06:46 10° NE daylight
24 Jul - 14:08:23 10° NNW 14:16:29 23° NNE 14:22:02 10° ENE daylight
24 Jul - 16:21:34 10° WNW 16:28:08 26° N 16:32:34 10° NE daylight
24 Jul - 18:36:02 10° NW 18:38:44 14° NNW 18:41:02 10° N visible
25 Jul - 12:53:39 10° NNW 13:02:07 20° NNE 13:08:16 10° ENE daylight
25 Jul - 15:05:55 10° NW 15:14:21 28° N 15:19:49 10° ENE daylight
25 Jul - 17:20:09 10° WNW 17:25:32 22° NNW 17:29:22 10° NE daylight
26 Jul - 11:40:03 10° N 11:47:28 16° NNE 11:53:22 10° ENE daylight
26 Jul - 13:50:16 10° NW 14:00:13 28° N 14:06:42 10° ENE daylight
26 Jul - 16:04:19 10° WNW 16:12:02 29° N 16:17:01 10° NE daylight
26 Jul - 18:19:30 10° WNW 18:22:37 14° NNW 18:25:12 10° N visible
